Regional Weather Roundup
Issued by NWS State College, PA

Home | Current Version | Previous Version | Graphics & Text | Print | Product List | Glossary On
Versions: 1 2 3 4 5 6 7 8 9 10 11 12 13 14 15 16 17 18 19 20 21 22 23 24 25 26 27 28 29 30 31 32 33 34 35 36 37 38 39 40 41 42 43 44 45 46 47 48 49 50
277
ASUS41 KCTP 250410
RWRCTP

REGIONAL WEATHER ROUNDUP
NATIONAL WEATHER SERVICE STATE COLLEGE PA
1100 PM EST FRI FEB 24 2017

Note: "fair" indicates few or no clouds below 12,000 feet with no
significant weather and/or obstructions to visibility.

* = STATION THAT DOES NOT REPORT PRECIPITATION /E.G. RAIN...SNOW...ETC/
    THUNDER OR FOG.

PAZ002>004-007>009-013>016-020>023-029>032-250500-
WESTERN PENNSYLVANIA

CITY           SKY/WX    TMP DP  RH WIND       PRES   REMARKS
ERIE           CLOUDY    69  48  47 S7        29.51F
MEADVILLE      PTCLDY    63  46  54 VRB3      29.56F
FRANKLIN*      PTCLDY    63  46  55 SE10G17   29.59F
NEW CASTLE     MOCLDY    62  48  60 SE6       29.56F
BEAVER COUNTY  NOT AVBL
BUTLER*        CLOUDY    63  46  55 S6        29.61S
PITTSBURGH INT CLOUDY    64  47  53 S7        29.59F
PITTSBURGH     CLEAR     66  44  45 S12       29.60F
INDIANA*       CLEAR     64  50  59 S14       29.67F
LATROBE        CLEAR     66  48  52 S8        29.64F
WASHINGTON CO* PTCLDY    63  46  55 S7        29.62F
$$

PAZ004>006-010>012-017>019-024>028-033>037-041-042-045-046-049>053-250500-
CENTRAL PENNSYLVANIA

CITY           SKY/WX    TMP DP  RH WIND       PRES   REMARKS
BRADFORD       CLOUDY    60  50  69 S8        29.65F
DUBOIS         CLEAR     63  48  58 SE12G22   29.64S
CLEARFIELD       N/A    N/A N/A N/A MISG      29.68F
JOHNSTOWN      CLOUDY    60  48  64 S16       29.69F
ALTOONA        CLOUDY    63  50  62 S20G28    29.71S
STATE COLLEGE  CLEAR     64  50  61 S12G18    29.71S
WILLIAMSPORT   CLOUDY    65  52  62 SE13G23   29.72R
SELINSGROVE    PTCLDY    62  54  74 SW5       29.75S
FT INDIANTOWN  CLOUDY    62  62 100 S5        29.78F
CAPITAL CITY   CLOUDY    63  55  75 SE9       29.76F
HARRISBURG     CLOUDY    60  57  89 SE8       29.76F
YORK           CLOUDY    61  58  90 S6        29.77F
$$

PAZ038>040-043-044-047-048-054-055-060>062-067>071-250500-
EASTERN PENNSYLVANIA

CITY           SKY/WX    TMP DP  RH WIND       PRES   REMARKS
SCRANTON       PTCLDY    63  54  72 S10G21    29.77F
MOUNT POCONO   CLOUDY    56  54  93 S12       29.82F
ALLENTOWN      MOCLDY    63  55  75 S13       29.82S
QUAKERTOWN*    CLOUDY    61  59  94 S7        29.84S
READING        CLOUDY    63  58  83 S13       29.79F
LANCASTER      CLOUDY    64  60  87 S14G24    29.79F
COATESVILLE    CLOUDY    59  57  94 VRB6      29.84S
POTTSTOWN      CLOUDY    61  57  87 S5        29.84F
BLUE BELL      PTCLDY    59  55  88 S5        29.83S
DOYLESTOWN     CLOUDY    63  59  87 VRB7      29.83S
WILLOW GROVE   NOT AVBL
NORTH PHILA    CLEAR     62  58  86 S3        29.86S
PHILADELPHIA   PTCLDY    59  56  89 S8        29.84F
$$




USA.gov is the U.S. government's official web portal to all federal, state and local government web resources and services.